Home   Weather   Prince George   Past weeks

Flag for Canada Past Weather in Prince George, British Columbia, Canada — Yesterday and Last 2 Weeks

Now
25 °F

Sunny.


Feels Like: 15 °F
Forecast: 13 / 27 °F
Wind: 9 mph from Northwest

Location: Prince George

Current Time: Feb 24, 2017 at 4:48:01 pm

Latest Report: Feb 24, 2017 at 4:00 pm


Visibility: 9 mi

Pressure: 30.35 "Hg (28.22 "Hg at 573m altitude)

Humidity: 36%

Dew Point: 1 °F

Location of Prince GeorgeLocation

Past Weather in Prince George — Graph

°F

Prince George Temperature Yesterday

Maximum temperature yesterday: 28 °F (at 1:00 pm)
Minimum temperature yesterday: 9 °F (at 6:00 am)
Average temperature yesterday: 21 °F

High & Low Weather Summary for the Past Weeks

 TemperatureHumidityPressure
High54 °F (Feb 15, 3:00 pm)100% (Feb 11, 3:00 am)30.37 "Hg (Feb 11, 3:00 am)
Low-2 °F (Feb 10, 7:42 pm)40% (Feb 14, 11:00 pm)29.01 "Hg (Feb 16, 9:00 am)
Average29 °F85%29.76 "Hg
* Reported Feb 9 3:00 pm — Feb 24 3:00 pm, Prince George, Weather by CustomWeather, © 2017

Note: Actual official high and low records may vary slightly from our data, if they occured in-between our weather recording intervals... More about our weather records

Advertising

Prince George Weather History for the Previous 24 Hours

Scroll right to see more
 ConditionsComfort  
Time TempWeatherWind HumidityBarometerVisibility
3:00 pm
Fri, Feb 24
25 °FSunny.9 mph42%30.35 "Hg9 mi
2:00 pm25 °FSunny.10 mph46%30.35 "Hg9 mi
1:00 pm25 °FSunny.7 mph50%30.35 "Hg9 mi
12:00 pm23 °FSunny.9 mph54%30.36 "Hg9 mi
11:00 am21 °FSunny.8 mph58%30.36 "Hg9 mi
10:00 am19 °FSunny.8 mph68%30.37 "Hg9 mi
9:00 am16 °FSunny.13 mph73%30.36 "Hg9 mi
8:00 am14 °FSunny.12 mph79%30.34 "Hg9 mi
7:00 am14 °FClear.9 mph79%30.32 "Hg9 mi
6:00 am14 °FClear.13 mph85%30.30 "Hg9 mi
5:00 am16 °FClear.9 mph86%30.29 "Hg9 mi
4:00 am16 °FClear.10 mph86%30.27 "Hg9 mi
3:00 am18 °FClear.9 mph86%30.26 "Hg9 mi
2:06 am19 °FPassing clouds.10 mph86%30.24 "Hg9 mi
1:24 am19 °FLight snow. Mostly cloudy.9 mph100%30.24 "Hg8 mi
1:02 am19 °FLight snow. Overcast.8 mph100%30.23 "Hg2 mi
12:37 am19 °FLight snow. Overcast.8 mph100%30.23 "Hg5 mi
12:06 am21 °FLight snow. Overcast.10 mph93%30.23 "Hg3 mi
12:03 am21 °FLight snow. Overcast.9 mph93%30.23 "Hg3 mi
11:00 pm
Thu, Feb 23
21 °FLight snow. Overcast.9 mph100%30.21 "Hg5 mi
10:59 pm21 °FLight snow. Overcast.9 mph100%30.22 "Hg5 mi
10:00 pm21 °FLight snow. Passing clouds.8 mph100%30.21 "Hg9 mi
9:00 pm23 °FLight snow. Passing clouds.9 mph86%30.20 "Hg9 mi
8:52 pm23 °FLight snow. Passing clouds.9 mph86%30.21 "Hg6 mi
8:38 pm23 °FLight snow. Overcast.9 mph86%30.21 "Hg5 mi
8:20 pm23 °FLight snow. Overcast.10 mph86%30.21 "Hg5 mi
8:03 pm25 °FLight snow. Mostly cloudy.10 mph80%30.20 "Hg9 mi
7:00 pm27 °FOvercast.2 mph54%30.19 "Hg9 mi
6:00 pm27 °FMostly cloudy.5 mph59%30.19 "Hg9 mi
5:00 pm27 °FPartly sunny.3 mph59%30.18 "Hg9 mi
4:00 pm28 °FPartly sunny.2 mph55%30.17 "Hg9 mi
Weather by CustomWeather, © 2017

See weather overviewHow to use our weather pages